Theta_e
311 312 310 309 308 310 308 310 307 310 310 316 319 319 324 328 333 332 340 340 342 345 349 354 358 360 362 366 367 366 365 367 363 364 362 360 352 360 352 354 350 349 345 340
311 313 313 309 309 309 310 311 311 312 312 320 320 322 323 332 332 334 340 341 344 346 352 358 360 358 360 362 363 365 364 360 358 357 354 350 347 350 348 346 344 342 339 336
307 312 311 308 311 310 310 312 312 309 315 318 318 319 321 329 332 335 341 345 348 351 357 357 357 359 359 359 362 358 356 354 351 350 348 347 344 344 341 339 339 337 334 332
308 310 301 311 317 317 312 313 314 315 316 317 318 320 322 329 333 336 343 347 353 358 356 355 357 358 358 354 350 350 352 351 351 348 348 345 342 339 337 336 336 334 331 329
306 306 310 311 315 314 316 311 324 323 324 323 323 325 333 340 337 338 346 353 357 358 354 356 354 356 352 351 348 350 348 350 350 347 346 344 341 340 340 338 335 332 330 327
309 304 301 312 318 322 321 311 327 329 329 329 330 316 332 342 342 342 347 352 356 355 353 354 352 352 353 350 347 347 351 351 351 350 347 344 344 343 341 337 332 328 327 325
309 306 310 320 323 323 308 315 329 330 332 332 330 333 339 345 345 344 348 351 352 355 353 356 357 354 354 351 346 347 348 352 352 348 346 345 343 342 338 334 331 328 326 324
310 308 304 325 323 317 325 329 330 333 335 334 335 338 346 344 346 349 346 349 352 355 354 357 356 355 354 349 351 350 348 349 351 350 346 341 341 340 337 332 328 326 324 322
314 315 318 327 325 329 330 329 331 333 335 338 335 335 344 346 347 346 346 351 354 354 354 357 356 356 351 353 352 349 348 347 348 345 342 342 339 336 330 330 324 323 319 318
317 319 323 324 327 328 330 330 332 333 334 338 336 334 343 345 347 349 350 349 352 354 352 352 355 351 352 351 353 349 348 345 343 343 338 339 337 334 329 325 321 319 318 318
318 320 322 325 326 326 327 330 331 333 337 337 336 336 343 347 345 349 349 351 353 353 352 352 351 350 351 348 347 343 341 340 342 339 339 337 337 328 327 326 318 319 318 319
313 324 326 324 328 326 325 328 331 331 333 337 337 337 345 348 347 345 347 351 353 351 349 348 347 347 347 347 346 342 341 341 339 337 335 330 327 323 306 308 305 303 303 309
323 326 329 328 327 325 327 330 332 331 333 335 338 341 345 345 348 342 348 349 351 349 345 347 345 346 348 348 348 345 342 340 340 334 329 326 323 320 317 313 305 303 301 301
327 325 322 324 323 325 326 331 330 333 335 336 340 341 344 345 345 347 348 348 346 345 343 344 343 341 344 347 346 343 340 323 339 329 325 323 321 319 318 314 313 313 304 305
323 325 324 325 325 324 327 330 330 330 335 336 342 342 342 343 344 346 348 348 345 343 342 341 340 340 344 344 343 340 337 332 329 325 323 321 322 320 318 318 319 319 319 307
325 325 325 324 323 327 329 329 330 332 337 339 340 342 344 347 347 346 345 344 342 338 339 339 339 342 343 340 334 330 328 323 324 324 320 321 319 318 320 320 318 318 319 319
323 322 323 323 326 327 328 330 331 335 339 340 338 345 342 341 341 341 343 343 344 344 343 341 336 338 338 334 330 330 324 327 324 323 320 321 321 321 320 319 319 318 318 318
331 330 328 326 326 327 328 331 334 338 341 344 344 340 339 340 339 340 341 341 341 339 340 339 338 336 334 333 329 328 325 323 322 322 321 321 321 320 320 320 319 319 319 317
334 332 332 329 328 329 329 332 338 343 345 345 343 341 340 340 339 340 340 337 335 333 333 335 326 329 329 328 328 327 325 322 320 320 321 318 320 321 320 320 319 320 319 318
333 331 332 330 330 329 332 338 342 342 344 340 341 339 339 339 340 339 337 335 334 333 333 329 329 329 329 326 323 325 323 321 320 320 321 320 320 320 321 313 317 318 319 320
330 329 328 328 329 336 337 340 340 333 336 339 339 340 339 340 338 337 334 331 334 329 329 321 326 325 325 323 321 323 322 321 321 321 321 320 321 321 320 320 320 321 319 320
335 334 334 335 336 337 341 343 339 339 338 339 339 339 337 335 336 336 338 335 333 317 323 325 325 323 321 320 321 321 321 321 321 321 321 322 322 320 320 321 320 321 321 322
338 339 338 339 340 341 343 341 339 338 337 337 337 336 334 334 335 332 330 334 330 321 328 328 318 317 317 319 322 323 322 321 321 321 322 322 322 321 320 321 321 320 321 323
336 340 338 340 342 338 337 341 339 339 340 339 338 340 338 334 334 335 334 320 315 318 326 321 318 315 314 323 323 323 323 322 321 322 322 310 322 322 321 321 320 322 322 319
335 337 338 336 337 335 336 338 337 337 337 337 338 338 338 337 335 332 330 327 312 319 324 311 313 313 318 324 323 324 323 322 322 321 322 322 321 321 322 321 321 321 322 322
333 338 335 337 335 335 335 335 332 333 334 333 334 335 334 334 332 331 329 321 325 319 321 318 318 318 319 323 323 323 323 322 321 321 320 322 322 321 321 321 321 320 322 322
332 321 332 333 333 334 335 334 334 332 331 332 329 329 329 329 328 326 320 324 323 323 322 320 321 318 321 321 320 320 321 322 317 321 321 320 320 321 321 321 321 321 322 322
Wind_Speed
6 11 6 11 17 14 17 15 18 15 5 9 6 8 8 6 6 5 9 13 16 17 16 16 15 15 14 12 14 14 13 13 14 12 10 8 10 16 12 10 9 7 6 6
11 13 13 11 13 15 20 15 14 18 14 10 7 5 6 10 3 5 10 14 16 18 17 16 16 16 15 15 14 12 11 11 10 11 8 5 8 12 12 12 11 7 6 6
14 14 14 13 13 16 15 15 15 14 10 6 9 12 14 7 5 7 11 15 17 18 18 17 17 16 16 15 13 10 12 12 11 13 12 12 11 11 11 11 10 7 7 6
13 16 18 17 9 20 10 11 16 12 12 8 9 11 15 6 5 7 13 15 16 16 16 17 16 16 15 14 11 11 12 13 14 14 14 13 11 12 11 9 9 8 7 7
12 12 15 17 9 6 30 9 18 16 17 14 12 15 14 12 5 5 13 13 14 14 15 15 17 16 15 12 11 11 13 13 15 14 16 14 13 12 11 10 9 8 7 8
12 15 18 11 6 6 8 8 14 14 14 13 14 10 9 9 8 0 8 12 14 15 14 15 16 16 14 13 11 12 13 13 12 13 14 14 14 13 11 10 9 8 9 9
14 15 13 9 9 6 9 6 12 12 11 11 9 8 9 6 2 3 6 13 13 17 13 13 15 15 12 12 12 13 14 14 12 14 13 13 12 9 10 10 9 8 9 8
9 15 6 14 6 8 9 8 9 9 10 8 9 5 4 3 5 7 8 10 12 12 13 13 14 13 11 9 10 12 14 13 13 13 10 10 12 10 10 10 9 9 8 8
5 2 4 24 5 9 9 9 8 9 9 9 10 5 3 2 5 6 9 9 9 11 10 8 11 11 9 9 12 14 12 12 13 15 12 10 12 11 10 9 8 8 8 7
13 10 4 4 4 4 8 6 9 10 9 9 10 4 3 5 5 5 7 9 10 14 13 13 9 9 9 9 10 11 11 12 10 11 12 12 10 9 8 9 8 8 8 7
11 16 10 5 2 6 8 8 8 9 8 8 7 6 5 7 7 7 8 9 8 11 12 13 12 9 12 13 11 11 12 11 10 11 11 11 8 6 7 4 2 7 7 6
5 6 2 7 7 10 11 10 7 8 9 6 6 7 8 7 8 8 9 8 8 14 11 11 10 11 11 14 13 14 13 11 10 10 10 9 9 7 13 12 10 10 9 8
11 12 10 5 14 14 12 11 8 6 9 10 2 5 7 7 8 9 10 9 8 11 11 11 12 12 10 11 12 14 12 10 7 8 10 9 8 8 8 3 6 5 4 5
7 10 14 13 13 12 12 10 6 9 6 7 1 2 3 5 8 9 8 9 9 10 10 10 10 9 8 11 12 12 11 4 7 8 8 8 8 7 7 7 7 7 7 8
16 17 18 16 13 14 13 11 11 9 3 6 4 4 5 7 9 8 8 11 11 11 9 8 10 10 11 11 9 10 9 9 9 7 6 6 6 5 5 8 7 4 5 9
13 13 12 11 12 11 11 11 10 10 6 5 4 6 7 8 8 9 8 8 11 9 10 11 11 14 15 12 12 7 8 7 7 7 7 7 5 7 6 4 4 7 7 5
17 15 12 12 8 9 9 12 8 7 5 7 4 4 12 12 11 9 9 9 8 10 11 10 10 9 7 7 12 10 7 6 8 9 7 7 7 4 5 8 7 6 6 4
14 15 17 16 15 11 9 8 8 1 5 7 9 13 11 9 10 8 8 8 9 8 8 10 11 10 11 12 9 8 8 8 8 7 7 6 6 6 6 5 6 5 3 9
15 15 14 14 16 14 9 7 4 4 8 9 10 11 8 8 9 8 9 9 9 9 8 9 5 8 8 6 3 9 10 9 8 7 7 6 4 7 6 5 5 5 3 8
13 11 13 13 15 8 6 7 8 8 13 11 11 9 8 8 10 10 9 7 6 5 9 10 11 9 10 8 7 7 7 8 8 7 6 7 7 7 6 2 6 8 6 3
5 5 7 8 7 8 6 6 11 8 4 6 9 10 9 7 7 8 9 7 8 11 11 12 9 8 7 9 7 7 8 8 8 7 7 7 5 5 7 5 4 2 5 3
3 1 1 2 4 5 7 9 13 14 12 9 6 7 10 8 8 10 8 7 8 8 10 8 8 7 9 8 10 7 8 9 7 6 7 7 6 7 4 3 3 2 1 3
5 2 5 6 6 7 8 10 9 11 10 9 9 11 11 9 10 8 7 9 10 9 9 7 11 11 10 9 8 6 6 7 7 6 5 6 5 4 5 3 4 5 4 4
3 7 6 7 8 7 8 9 11 10 12 12 11 12 11 9 8 7 10 10 11 10 4 9 8 8 6 8 4 4 4 5 6 6 7 2 6 6 7 3 3 2 3 2
7 5 7 8 8 7 8 7 8 9 9 9 9 9 7 5 7 8 9 10 11 8 8 9 7 5 7 5 4 4 4 5 6 6 6 5 7 7 6 5 5 3 4 6
3 3 5 4 5 6 8 9 8 8 9 9 8 7 6 7 9 9 9 11 10 9 8 8 9 8 7 5 5 6 7 7 6 7 6 5 6 6 6 6 6 7 8 8
5 2 5 5 4 3 1 5 7 8 7 8 8 8 8 8 8 9 11 11 9 9 9 9 8 8 8 7 6 7 7 7 6 7 8 9 8 8 8 7 7 8 7 7
Wind_Direction
292 312 296 299 297 223 244 270 279 286 0 299 41 328 33 43 14 237 160 168 158 161 168 165 163 168 176 159 153 165 178 166 170 170 172 162 170 132 110 125 114 104 102 90
289 281 259 244 271 269 279 228 261 270 283 330 317 293 6 48 332 199 183 167 169 159 163 163 168 179 172 169 177 173 167 162 153 154 129 114 79 102 112 119 111 113 103 93
293 304 300 270 240 243 260 250 240 253 247 317 356 351 323 119 292 190 182 171 169 171 167 173 180 175 170 169 149 147 158 143 162 159 150 122 125 118 121 115 121 124 118 116
277 279 273 276 36 317 300 249 252 247 279 323 315 294 292 19 165 202 178 179 175 167 177 176 174 165 160 149 150 158 153 164 159 157 157 140 139 130 134 134 137 128 137 128
283 270 276 271 345 54 312 246 34 1 356 346 337 350 60 33 11 225 171 176 181 171 177 175 164 158 154 154 154 155 158 167 161 160 156 158 150 143 135 137 138 139 139 140
273 288 283 299 54 345 311 263 30 10 0 355 342 294 58 16 352 83 170 177 180 169 171 179 168 158 152 150 146 160 163 159 162 145 155 154 148 149 145 141 138 143 147 147
237 236 250 13 353 311 253 18 359 356 347 347 329 341 354 350 295 245 191 169 192 166 166 177 170 170 170 150 159 165 165 155 147 153 153 144 133 134 144 153 141 138 146 145
302 306 233 348 314 319 6 338 350 341 331 317 301 316 36 323 276 240 189 178 189 154 160 164 165 177 184 160 147 157 165 163 156 150 137 138 139 143 143 131 144 150 154 172
187 236 58 251 11 353 349 333 331 316 307 297 295 311 63 281 251 184 181 166 153 156 158 134 153 180 167 144 156 162 155 153 140 139 141 141 142 142 143 163 150 164 173 192
283 295 44 10 85 18 355 327 314 303 300 270 271 260 124 148 192 153 152 158 175 145 160 162 163 154 139 122 149 148 139 132 144 136 135 150 152 159 155 173 168 174 184 201
273 263 259 225 117 358 325 305 308 311 301 282 283 259 123 150 173 155 166 166 138 153 162 160 155 149 150 138 143 129 133 148 149 143 154 151 149 177 170 94 130 187 191 199
287 1 287 30 322 317 309 297 288 311 314 282 289 252 143 150 157 170 170 174 164 153 154 158 135 137 142 150 152 149 152 161 157 161 152 167 146 137 53 76 72 65 55 37
284 147 218 200 272 291 284 290 248 316 300 285 258 280 145 154 172 168 175 169 157 143 134 147 154 148 159 156 161 163 161 137 146 160 169 155 163 158 162 109 66 74 52 12
284 296 293 286 286 298 301 277 250 268 295 258 235 347 85 134 118 176 163 167 159 149 154 148 142 141 146 161 158 153 118 119 152 178 157 162 155 171 155 163 177 196 214 223
277 267 268 271 273 270 269 257 265 266 261 224 119 142 164 154 174 147 133 134 143 147 138 141 135 142 152 149 151 118 144 181 167 157 150 150 153 151 151 188 197 192 194 193
285 250 248 248 250 258 253 247 262 266 205 184 131 173 188 144 107 108 116 130 134 139 142 145 149 159 156 150 123 131 164 200 132 127 148 170 159 184 183 160 193 220 229 229
269 260 245 267 247 243 255 250 272 279 199 185 206 206 84 86 95 117 138 141 121 144 139 138 137 133 122 145 161 172 132 156 137 165 175 175 184 182 189 207 206 200 197 131
262 261 260 255 252 258 259 260 267 211 222 186 157 111 116 131 134 137 129 121 123 122 141 141 153 157 172 191 174 152 148 172 183 176 169 170 177 197 210 210 224 224 185 140
271 257 252 246 247 255 272 260 219 174 145 136 129 130 125 144 147 159 130 142 148 150 150 154 114 173 166 81 133 184 180 173 182 167 176 138 188 227 196 222 242 241 222 163
273 259 246 229 233 244 212 247 167 141 140 133 141 151 154 152 149 143 149 165 162 157 154 143 172 163 169 164 254 193 169 179 184 164 187 184 205 205 220 34 334 319 291 252
318 252 210 223 213 201 180 162 132 111 109 162 157 167 158 135 140 162 169 176 133 140 158 162 186 162 174 172 225 220 175 187 186 173 171 227 185 255 217 190 211 256 298 315
343 315 177 181 197 175 173 174 129 141 159 165 143 133 134 143 168 182 185 161 142 166 150 182 185 162 157 178 217 199 185 189 192 195 195 213 203 216 224 233 244 250 317 354
12 59 122 128 143 134 107 104 127 139 136 135 144 144 155 167 171 169 151 144 149 180 189 180 108 112 146 207 217 207 206 192 208 214 216 207 214 222 261 276 10 342 346 359
71 56 53 86 94 122 135 156 146 139 141 147 151 167 162 171 161 194 124 136 141 171 185 129 126 140 206 216 200 190 234 219 229 221 224 253 218 209 224 258 272 303 283 207
1 129 149 135 137 125 124 123 127 130 143 126 139 164 167 171 131 126 141 147 136 191 126 114 129 171 219 213 204 196 213 233 238 238 214 235 224 226 239 257 266 249 283 257
331 5 50 26 88 140 140 170 140 149 146 153 152 145 119 116 114 133 136 152 164 143 150 158 178 200 226 244 205 221 217 218 215 226 269 244 248 273 288 294 294 273 248 260
120 211 143 126 132 93 3 105 134 130 151 142 135 132 138 146 135 136 150 165 164 180 155 172 183 203 229 231 215 239 227 231 225 224 212 224 242 255 262 264 266 270 275 284